Lid_Strength_Index
1 1 2 3 3 3 3 4 5 7 6 5 5 4 3 3 3 3 3 5 7 7 7 6 5 4 4 3 2 2 1 0 -0 -1 -1 -1 -1 -1
1 2 2 3 3 3 4 4 4 5 7 4 4 4 3 3 3 3 3 5 7 8 8 8 7 5 4 4 4 3 3 2 1 1 0 -0 -1 -1
1 2 2 3 3 3 3 3 4 4 6 5 4 4 4 4 3 4 4 4 4 8 8 8 8 7 6 6 7 6 5 4 4 3 2 2 1 1
2 2 2 3 3 3 4 4 4 4 5 6 5 5 4 3 3 3 3 2 2 5 8 7 7 7 7 8 8 8 7 7 7 6 6 5 5 5
2 2 2 3 4 3 4 4 4 4 4 5 5 4 4 4 4 4 3 3 3 9 10 10 10 9 9 9 8 8 8 9 10 10 10 10 9 8
1 2 2 2 3 3 3 4 4 4 4 4 5 5 4 4 4 4 5 4 5 9 10 11 10 9 9 10 10 10 10 10 11 11 11 12 11 10
2 2 2 3 6 4 3 3 3 4 4 4 4 5 5 5 5 4 5 4 7 7 9 10 10 11 11 11 11 11 11 11 11 11 12 12 12 12
3 3 3 6 7 9 9 8 5 4 4 4 4 5 5 4 5 4 5 5 7 10 10 13 12 13 12 12 11 11 12 12 12 12 12 13 13 13
8 5 8 10 9 11 14 14 14 15 14 5 5 5 6 8 8 7 6 6 8 12 10 15 14 15 13 13 12 13 13 13 14 14 14 13 13 13
14 12 12 11 11 11 13 15 15 16 15 14 14 15 15 14 12 10 9 12 14 15 13 15 15 16 15 15 14 14 14 14 14 15 15 14 15 15
15 14 14 13 14 12 14 16 17 16 15 15 15 15 15 14 13 12 13 13 15 16 15 15 16 17 17 17 15 14 15 15 15 16 16 15 15 15
16 15 15 14 14 14 15 16 17 17 16 16 17 17 16 16 16 17 15 14 15 16 16 15 16 17 19 17 17 17 17 16 16 17 16 15 16 19
17 17 16 15 15 15 16 16 17 16 16 16 17 18 19 18 18 18 18 16 17 18 17 16 16 17 17 19 17 19 21 21 19 18 17 17 16 17
18 17 16 16 15 16 16 16 17 17 17 18 18 19 20 20 19 19 19 19 19 20 20 19 18 17 19 20 22 20 21 21 20 21 21 18 17 15
18 17 17 17 17 17 17 17 17 18 19 20 21 21 20 19 18 19 19 19 20 20 19 19 20 21 19 20 22 22 22 20 20 20 19 18 18 17
19 19 19 19 19 19 19 19 19 19 20 21 21 21 20 20 20 20 21 21 22 21 20 19 19 20 21 21 21 21 20 21 20 18 18 18 17 17
19 20 20 21 20 20 20 21 20 20 21 21 21 21 21 21 21 20 20 21 23 23 22 21 19 19 19 19 20 20 20 20 19 18 18 19 17 17
20 21 22 22 22 22 22 22 21 21 21 21 20 21 21 21 21 20 20 22 23 22 22 21 20 19 19 19 17 19 19 19 18 18 18 20 20 17
21 21 21 21 21 21 21 22 23 22 21 22 22 21 21 21 21 21 21 21 21 21 21 21 21 21 23 23 19 16 19 19 19 21 19 19 20 17
21 22 23 22 22 22 23 23 23 23 23 22 23 23 22 21 22 22 22 23 22 21 21 21 21 21 22 24 24 21 16 21 21 22 21 20 18 15
22 23 23 23 23 24 25 25 26 26 25 25 25 25 25 23 24 23 23 24 23 22 22 22 21 19 18 20 24 23 20 16 17 19 19 23 22 20
24 24 24 24 24 25 26 27 26 26 26 25 26 26 26 23 24 24 24 23 22 22 22 21 20 19 19 20 22 26 22 21 18 16 15 16 18 21
27 25 26 26 25 26 26 28 29 30 28 27 27 27 29 26 25 25 24 23 23 23 23 23 22 21 21 20 22 24 23 24 20 20 19 15 14 13